Location: *
(37.5724°S, 58.0067°E)
Time: 09:42:19
(UTC+00:00)

Cosmos 1025 Rocket - Pass Details

Date: 26 September 2020
Orbit: 595 x 617 km, 82.5° (Epoch: 29 October)

Event Time Altitude Azimuth Distance (km) Brightness Sun altitude
Rises 16:03:44 0° 341° (NNW) 2,876 6.5 -23.1°
Reaches altitude 10° 16:06:00 10° 335° (NNW) 1,977 5.7 -23.6°
Maximum altitude 16:10:14 48° 260° (W) 813 4.0 -24.3°
Drops below altitude 10° 16:14:31 10° 185° (S) 1,992 6.0 -25.1°
Sets 16:16:50 0° 179° (S) 2,901 6.8 -25.5°
